This is the latest recevied weather packets stored in our database for station/object IW1QQG-13. If no packets are shown the sender has not sent any weather packets the latest 1 day(s).
| Time | Temp. | Humidity | Pressure | Rain* | Wind** | Luminosity | Snow |
|---|---|---|---|---|---|---|---|
| 1778031956 | 12.78° C | 91% | 1010.2 hPa | 0 mm | 0.45 m/s, 266° | 0 W/m² | - |
| 1778031356 | 12.22° C | 94% | 1010.2 hPa | 0 mm | 0.89 m/s, 275° | 0 W/m² | - |
| 1778030756 | 12.22° C | 98% | 1010.2 hPa | 0 mm | 0 m/s | 0 W/m² | - |
| 1778030156 | 12.22° C | 98% | 1010.2 hPa | 0 mm | 0 m/s | 0 W/m² | - |
| 1778029556 | 12.22° C | 97% | 1010.2 hPa | 0 mm | 0 m/s | 0 W/m² | - |
| 1778028956 | 12.22° C | 97% | 1009.8 hPa | 0 mm | 0 m/s | 0 W/m² | - |
| 1778028356 | 12.22° C | 96% | 1009.8 hPa | 0 mm | 0 m/s | 0 W/m² | - |
| 1778027756 | 12.22° C | 97% | 1009.8 hPa | 0 mm | 0.45 m/s, 230° | 0 W/m² | - |
| 1778027156 | 12.78° C | 99% | 1010.5 hPa | 0 mm | 0 m/s | 0 W/m² | - |
| 1778026556 | 12.78° C | 99% | 1010.8 hPa | 0 mm | 0.45 m/s, 270° | 0 W/m² | - |
| 1778025956 | 12.78° C | 99% | 1010.8 hPa | 0 mm | 0.45 m/s, 354° | 0 W/m² | - |
| 1778025356 | 12.78° C | 99% | 1011.2 hPa | 0 mm | 0.45 m/s, 242° | 0 W/m² | - |
| 1778024756 | 12.78° C | 99% | 1011.9 hPa | 0 mm | 0 m/s | 0 W/m² | - |
| 1778024156 | 12.78° C | 98% | 1011.9 hPa | 0 mm | 0 m/s | 0 W/m² | - |
| 1778023556 | 12.78° C | 97% | 1011.9 hPa | 0 mm | 0.45 m/s, 208° | 0 W/m² | - |
| 1778022956 | 13.33° C | 98% | 1012.2 hPa | 0 mm | 1.34 m/s, 205° | 0 W/m² | - |
| 1778022356 | 12.78° C | 97% | 1011.9 hPa | 0 mm | 0.45 m/s, 232° | 0 W/m² | - |
| 1778021756 | 13.33° C | 95% | 1012.2 hPa | 0 mm | 0.45 m/s, 224° | 0 W/m² | - |
| 1778021156 | 13.33° C | 94% | 1011.9 hPa | 0 mm | 1.34 m/s, 306° | 0 W/m² | - |
| 1778020556 | 13.33° C | 92% | 1011.9 hPa | 0 mm | 0.45 m/s, 230° | 0 W/m² | - |
| 1778019956 | 13.33° C | 91% | 1011.9 hPa | 0 mm | 0.45 m/s, 347° | 0 W/m² | - |
| 1778019356 | 13.89° C | 91% | 1012.2 hPa | 0 mm | 0.89 m/s, 268° | 0 W/m² | - |
| 1778018756 | 13.89° C | 90% | 1012.2 hPa | 0 mm | 0 m/s | 0 W/m² | - |
| 1778018156 | 13.89° C | 90% | 1011.9 hPa | 0 mm | 0.45 m/s, 191° | 0 W/m² | - |
| 1778017556 | 13.33° C | 91% | 1012.5 hPa | 0 mm | 0.89 m/s, 216° | 0 W/m² | - |
* Rain latest hour (hover to see other rain measurements)
** Current wind speed in m/s (hover to see current wind gust speed)